Temp
57 56 56 56 56 56 56 55 55 55 55 55 56 56 56 56 56 56 56 56 56 56 56 56 56 55 54 55 56 57 57 57 57 57 57 56 56 56 55 55 55 55 55 55 55 55 54 54 54 54 54 54 54 53 53 53 53 53 53 53 52 52 51 50 50 50 50 50 50
55 55 56 57 57 56 55 55 55 54 54 54 55 56 56 56 56 56 56 56 56 56 56 56 56 55 55 54 56 57 57 57 57 57 57 56 56 56 56 55 56 56 56 55 55 55 54 54 54 54 54 54 53 53 53 53 53 53 53 52 52 52 52 51 51 50 50 50 50
55 55 56 56 56 55 54 54 54 53 53 54 55 56 56 56 56 56 55 55 55 56 56 56 56 56 55 54 55 56 57 57 57 57 57 56 56 56 56 56 56 56 56 55 55 55 55 54 54 54 54 53 53 53 53 53 54 53 52 52 52 52 51 51 51 50 50 50 49
55 56 56 55 54 54 54 54 53 53 53 54 55 55 56 56 56 55 55 54 55 55 56 56 56 56 56 55 55 56 57 57 57 57 56 56 56 56 56 56 56 56 56 56 55 55 55 55 54 54 54 53 53 53 53 53 53 53 53 52 52 51 51 51 51 51 50 49 49
56 55 55 54 54 53 53 53 53 53 54 55 55 55 56 56 55 55 55 55 55 55 55 55 56 56 56 55 55 55 56 57 57 57 56 56 56 56 56 56 56 56 56 56 55 55 55 55 54 54 54 54 53 53 53 53 53 53 52 52 52 51 51 51 51 50 50 49 49
55 54 54 53 53 52 52 52 53 54 55 55 55 55 55 55 55 55 54 54 55 55 55 55 56 56 56 56 55 55 56 56 57 56 56 56 56 56 56 56 56 56 56 56 55 55 55 55 54 54 54 54 53 53 53 53 53 52 52 51 51 51 51 50 50 50 49 49 49
54 53 52 52 52 52 52 53 53 54 55 55 55 55 55 55 55 54 54 55 55 55 56 56 56 56 56 56 55 55 55 56 56 56 56 56 56 56 56 56 56 56 55 55 55 55 55 55 54 54 54 54 53 53 53 53 52 51 51 50 51 50 50 50 50 50 49 48 48
53 52 52 52 52 53 53 54 55 55 55 54 55 55 55 55 54 54 54 55 55 55 55 55 55 55 55 56 56 56 56 56 56 56 56 56 56 56 56 56 56 55 55 55 55 55 55 55 54 54 53 53 52 52 52 52 51 51 50 50 50 50 50 50 50 50 49 48 48
54 54 54 54 54 54 54 55 55 54 54 54 54 55 55 55 54 54 54 55 55 56 56 55 55 55 55 55 56 56 56 56 55 55 56 56 56 56 56 56 55 55 55 55 55 54 54 54 54 53 53 53 52 52 52 52 51 50 50 50 50 50 50 50 50 49 49 48 48
55 55 55 54 54 54 55 54 54 54 54 54 54 55 55 55 54 54 54 55 56 56 55 55 55 54 54 54 55 56 56 56 55 55 55 55 55 55 55 55 55 54 54 54 54 54 54 54 53 53 52 52 52 52 51 51 50 50 50 50 50 49 49 49 49 49 49 48 48
54 54 54 54 54 54 54 54 54 54 54 54 54 55 55 55 55 54 55 56 56 55 55 55 55 54 54 54 55 55 56 56 56 55 54 55 55 55 55 55 55 54 54 54 54 54 54 53 53 52 52 52 52 52 51 51 50 50 50 50 49 49 48 48 48 48 48 48 48
54 54 54 53 53 54 54 53 54 54 54 54 54 55 55 55 54 55 55 55 55 55 55 55 55 55 55 55 55 55 56 56 55 55 54 54 55 55 55 55 55 54 54 54 54 54 53 53 52 52 51 51 52 52 51 51 50 49 49 49 49 48 48 48 48 48 48 48 48
53 53 53 53 53 53 53 53 54 54 54 54 54 55 55 55 55 55 55 55 55 55 55 55 55 55 55 55 55 55 55 55 55 54 54 55 55 55 55 55 55 54 54 54 54 54 53 52 52 52 51 51 51 51 51 50 49 49 48 48 48 48 48 47 48 48 48 47 47
53 53 53 53 53 53 53 53 54 54 54 54 54 55 55 55 55 55 55 55 55 55 55 55 55 55 55 55 55 55 55 55 54 54 54 55 55 55 55 54 55 54 54 54 54 53 53 52 52 52 51 51 51 50 50 49 49 48 48 48 48 47 47 47 47 47 47 47 47
53 53 53 54 54 54 53 53 53 54 54 54 54 55 55 54 55 55 55 55 55 55 55 55 55 55 55 55 55 55 55 54 54 54 54 55 55 55 55 55 54 54 54 54 53 53 52 52 52 51 51 50 50 49 49 49 48 48 48 48 47 47 47 47 47 48 47 47 47
53 53 54 53 53 53 53 53 53 53 54 54 54 54 55 54 55 55 55 55 55 55 54 54 54 54 54 55 55 55 55 54 54 54 54 55 55 55 55 55 54 54 54 54 53 52 52 52 51 51 50 49 49 48 48 48 48 48 47 47 47 46 46 47 47 48 47 47 46
53 53 53 53 53 53 53 53 53 53 53 54 54 54 54 54 54 55 55 55 55 55 54 54 54 54 54 55 55 55 55 54 54 54 54 55 55 55 55 55 55 54 54 53 53 52 51 51 51 51 50 48 48 47 47 47 47 47 47 47 46 46 47 48 48 47 47 47 46
53 53 53 53 53 53 53 53 53 53 53 53 54 54 54 54 54 55 55 55 55 54 54 54 54 54 54 54 55 55 55 55 54 54 54 54 55 55 55 55 55 54 54 53 52 52 51 51 50 50 49 48 47 47 46 46 46 46 45 45 45 46 47 47 47 47 46 46 45
52 52 52 52 52 52 52 53 53 53 53 53 54 54 54 54 54 54 54 54 55 55 54 54 53 53 53 53 54 54 55 55 55 54 54 54 55 55 55 55 55 54 53 53 52 51 51 50 50 49 49 48 47 46 46 46 45 45 44 44 45 46 46 46 46 46 46 45 45
52 52 52 52 52 52 52 52 52 52 53 53 53 54 54 54 54 54 54 54 54 55 54 54 54 53 53 53 53 54 54 55 54 54 54 54 55 55 55 55 54 54 53 52 52 51 50 50 50 49 48 47 47 46 45 45 44 43 43 44 44 45 45 45 45 45 45 44 44
52 52 51 51 51 51 51 52 52 52 53 53 53 53 54 54 54 54 54 54 54 54 54 54 54 53 53 53 53 53 54 54 54 54 54 54 55 55 55 55 54 54 53 52 51 51 50 50 49 49 48 47 46 46 45 44 43 43 43 43 44 44 44 44 44 44 44 44 44
52 51 51 51 51 51 51 52 52 52 52 53 53 53 53 54 54 54 54 54 54 54 54 54 53 53 53 53 53 53 53 54 54 54 54 54 55 55 55 55 54 53 52 51 51 50 50 50 49 48 48 47 46 46 45 44 43 42 42 43 43 43 43 43 44 44 44 43 43
52 51 51 51 51 51 51 52 52 52 52 52 53 53 53 53 54 54 54 54 54 54 54 53 53 53 52 52 53 53 53 53 53 53 54 54 54 55 55 55 54 53 52 51 51 50 50 50 49 48 48 48 46 46 45 44 44 43 42 42 42 42 42 42 43 43 43 43 42
52 51 51 51 51 51 51 51 52 52 52 52 52 53 53 53 54 54 54 54 54 54 54 54 53 53 52 52 52 52 52 53 52 53 53 54 54 54 54 54 54 53 52 52 51 51 50 50 49 49 48 48 47 46 45 45 44 43 43 42 42 42 41 41 41 42 42 41 41
52 51 51 51 51 51 51 51 51 52 52 52 52 52 53 53 53 54 54 54 54 54 54 54 53 53 53 53 52 52 52 52 52 52 52 53 53 54 54 54 53 53 53 53 54 54 54 53 51 50 49 49 47 46 45 44 44 43 43 43 43 42 41 41 40 40 40 40 40
52 52 52 51 51 51 51 51 51 52 52 52 52 52 52 53 53 54 54 54 54 54 53 53 53 54 54 53 53 52 52 52 52 52 52 52 53 53 53 53 53 53 53 55 56 56 56 55 54 52 51 49 48 46 45 44 43 43 44 44 44 43 42 41 40 39 39 38 39
52 52 52 51 51 51 51 51 51 51 52 52 52 52 52 53 53 53 54 54 54 54 54 54 54 54 54 54 53 52 52 52 51 51 51 52 52 53 53 53 52 53 54 56 57 58 58 57 56 54 52 49 48 47 46 45 43 43 44 44 44 44 43 42 41 40 39 38 38
52 52 51 51 51 51 50 51 51 51 52 52 52 52 52 52 53 53 53 53 53 54 54 54 54 54 54 54 53 53 52 51 51 51 51 52 52 52 52 52 52 53 55 57 58 59 58 58 58 56 54 51 49 47 46 45 44 44 44 44 44 43 43 42 41 41 40 39 38
52 52 51 51 50 50 50 50 50 51 51 52 52 52 52 52 52 53 53 53 53 53 53 54 54 54 54 53 53 53 52 51 51 51 51 52 52 52 52 52 52 53 56 58 59 59 59 59 59 58 56 54 50 49 47 46 45 45 44 44 43 43 42 42 41 41 40 39 39
52 52 51 51 50 50 50 49 50 50 51 51 52 52 52 52 52 52 53 53 53 53 53 54 54 54 53 53 53 52 52 51 50 50 51 51 51 52 52 52 52 53 56 59 60 60 60 60 59 58 57 55 52 49 48 47 46 46 45 44 43 42 42 41 40 40 40 39 39
52 52 52 51 50 50 50 49 49 50 51 51 52 51 51 52 52 52 52 52 53 53 54 54 53 53 53 53 53 52 52 51 50 50 50 51 52 52 52 51 52 53 56 59 60 60 60 60 60 59 58 56 53 50 48 47 46 46 45 44 42 41 41 41 40 40 40 40 40
52 52 52 52 51 50 50 49 49 50 51 51 51 51 51 51 51 52 52 52 53 53 53 53 53 53 53 53 53 52 52 51 50 50 50 51 51 51 51 51 52 53 56 59 60 61 61 61 60 59 58 57 53 49 46 46 45 45 44 43 42 41 41 42 41 40 40 41 41
52 52 52 52 51 51 50 50 50 50 51 51 51 51 51 50 51 51 51 52 52 52 53 53 53 53 53 53 52 52 52 51 51 51 51 51 51 51 51 51 52 54 57 59 60 61 61 61 60 60 59 57 53 48 45 45 45 44 42 41 41 41 41 41 41 41 41 41 42
52 52 52 52 51 51 51 50 50 50 50 51 51 51 50 50 50 51 51 52 52 52 52 53 53 53 53 53 53 52 52 52 51 50 50 49 49 50 50 51 52 54 57 59 61 61 61 61 61 60 59 57 52 47 45 45 44 43 42 40 40 40 40 40 41 41 41 42 42
52 52 52 52 51 51 51 50 50 50 50 50 50 50 50 50 50 50 51 52 52 52 52 52 53 53 53 53 53 53 53 52 51 50 49 49 49 49 49 50 52 55 57 59 61 61 61 61 61 60 59 56 50 47 45 44 43 42 41 40 40 39 39 39 40 40 41 41 42
52 52 52 52 51 51 51 50 50 50 50 50 50 50 50 49 49 50 51 53 52 52 52 52 52 52 53 53 53 53 53 52 50 50 49 49 49 48 48 48 50 54 57 59 61 61 62 61 61 60 58 53 48 46 45 45 44 42 41 41 40 39 39 39 39 40 40 40 41
52 52 52 52 51 51 51 50 50 50 50 50 50 50 50 50 49 50 51 52 52 51 51 51 52 52 52 53 53 53 53 52 51 50 50 50 50 49 48 48 49 53 57 60 61 62 62 62 61 59 56 50 47 45 45 45 43 42 41 40 39 38 38 38 39 39 40 40 41
52 52 52 52 51 51 51 51 50 50 50 50 50 50 50 50 50 50 51 52 51 51 51 51 51 51 52 52 53 53 53 52 51 51 51 51 50 50 49 49 49 51 55 59 61 62 62 62 61 59 54 49 47 46 46 45 43 41 40 40 38 38 38 38 39 39 40 41 45
52 52 52 52 51 51 51 51 50 50 50 50 50 50 50 50 50 50 51 52 51 51 51 51 51 51 52 53 53 53 53 52 52 52 52 51 51 51 51 50 49 51 53 57 60 61 62 62 61 58 54 50 48 47 47 45 43 41 40 39 38 38 38 37 38 39 40 43 50
51 52 52 52 51 51 51 50 50 50 50 50 50 50 50 50 50 51 51 51 50 51 51 51 51 51 52 53 53 52 52 52 52 52 52 52 52 53 53 51 50 51 53 56 58 60 61 62 60 58 55 51 49 48 48 46 44 42 40 40 40 39 38 37 38 39 40 42 49
50 51 52 52 52 51 51 50 50 50 50 50 50 50 50 50 51 51 51 50 50 51 51 51 51 51 52 54 53 52 51 51 52 52 52 53 53 54 54 52 51 51 52 54 56 58 61 62 60 58 55 52 49 49 48 47 45 42 41 40 40 40 39 38 38 39 40 41 44
MSLP
1013.18 1013.30 1013.42 1013.54 1013.66 1013.82 1014.02 1014.14 1014.26 1014.38 1014.46 1014.58 1014.74 1014.82 1014.90 1015.02 1015.18 1015.30 1015.38 1015.50 1015.58 1015.74 1015.86 1015.98 1016.14 1016.30 1016.50 1016.66 1016.78 1016.90 1017.06 1017.18 1017.26 1017.30 1017.38 1017.50 1017.66 1017.78 1017.90 1018.06 1018.14 1018.26 1018.34 1018.46 1018.58 1018.66 1018.82 1018.94 1019.02 1019.10 1019.18 1019.30 1019.38 1019.46 1019.58 1019.66 1019.74 1019.82 1019.90 1020.02 1020.10 1020.18 1020.30 1020.42 1020.54 1020.62 1020.74 1020.86 1020.98
1013.26 1013.30 1013.38 1013.54 1013.70 1013.86 1014.02 1014.18 1014.30 1014.42 1014.50 1014.58 1014.66 1014.78 1014.86 1014.98 1015.10 1015.26 1015.38 1015.46 1015.54 1015.66 1015.82 1015.94 1016.10 1016.26 1016.42 1016.58 1016.74 1016.86 1016.98 1017.10 1017.22 1017.30 1017.34 1017.46 1017.58 1017.74 1017.90 1018.02 1018.14 1018.22 1018.30 1018.42 1018.50 1018.62 1018.74 1018.86 1019.02 1019.10 1019.18 1019.30 1019.38 1019.46 1019.58 1019.62 1019.74 1019.82 1019.90 1020.02 1020.10 1020.18 1020.30 1020.46 1020.54 1020.66 1020.78 1020.90 1021.02
1013.22 1013.30 1013.42 1013.58 1013.74 1013.90 1014.02 1014.14 1014.30 1014.42 1014.50 1014.58 1014.66 1014.74 1014.86 1015.02 1015.14 1015.26 1015.38 1015.46 1015.54 1015.62 1015.74 1015.90 1016.02 1016.14 1016.30 1016.50 1016.66 1016.78 1016.86 1016.98 1017.14 1017.22 1017.30 1017.42 1017.54 1017.66 1017.82 1017.94 1018.10 1018.18 1018.26 1018.34 1018.46 1018.58 1018.74 1018.86 1018.94 1019.02 1019.14 1019.26 1019.34 1019.46 1019.54 1019.62 1019.70 1019.78 1019.86 1020.02 1020.10 1020.18 1020.30 1020.46 1020.58 1020.66 1020.78 1020.94 1021.02
1013.18 1013.30 1013.46 1013.58 1013.74 1013.86 1013.94 1014.06 1014.18 1014.34 1014.46 1014.58 1014.70 1014.78 1014.86 1015.02 1015.14 1015.26 1015.38 1015.54 1015.58 1015.62 1015.74 1015.86 1015.98 1016.10 1016.26 1016.46 1016.62 1016.74 1016.82 1016.86 1017.02 1017.14 1017.22 1017.34 1017.46 1017.58 1017.74 1017.86 1017.98 1018.10 1018.18 1018.30 1018.46 1018.54 1018.62 1018.78 1018.86 1018.98 1019.06 1019.18 1019.30 1019.38 1019.46 1019.58 1019.70 1019.78 1019.86 1020.02 1020.10 1020.18 1020.30 1020.46 1020.58 1020.70 1020.82 1020.98 1021.06
1013.18 1013.26 1013.34 1013.50 1013.66 1013.74 1013.86 1014.02 1014.14 1014.30 1014.46 1014.58 1014.66 1014.74 1014.86 1015.02 1015.14 1015.26 1015.38 1015.50 1015.58 1015.62 1015.74 1015.82 1015.94 1016.06 1016.22 1016.42 1016.58 1016.74 1016.78 1016.86 1016.90 1017.02 1017.18 1017.26 1017.38 1017.50 1017.62 1017.74 1017.86 1018.02 1018.14 1018.26 1018.38 1018.46 1018.58 1018.74 1018.82 1018.90 1019.02 1019.18 1019.26 1019.34 1019.46 1019.58 1019.70 1019.78 1019.86 1020.02 1020.14 1020.22 1020.30 1020.46 1020.58 1020.74 1020.86 1020.98 1021.10
1013.22 1013.22 1013.30 1013.38 1013.58 1013.74 1013.86 1014.02 1014.14 1014.30 1014.42 1014.58 1014.66 1014.74 1014.86 1015.02 1015.14 1015.26 1015.34 1015.46 1015.54 1015.62 1015.74 1015.82 1015.90 1016.02 1016.14 1016.30 1016.50 1016.66 1016.78 1016.82 1016.86 1016.94 1017.06 1017.22 1017.34 1017.46 1017.54 1017.70 1017.82 1017.94 1018.06 1018.18 1018.30 1018.42 1018.54 1018.66 1018.78 1018.86 1019.02 1019.14 1019.26 1019.34 1019.46 1019.54 1019.66 1019.74 1019.86 1020.02 1020.14 1020.22 1020.30 1020.46 1020.58 1020.74 1020.86 1021.02 1021.14
1013.18 1013.18 1013.26 1013.34 1013.46 1013.66 1013.86 1014.02 1014.14 1014.30 1014.46 1014.58 1014.70 1014.74 1014.86 1014.98 1015.10 1015.26 1015.34 1015.42 1015.50 1015.58 1015.74 1015.82 1015.90 1016.02 1016.14 1016.26 1016.42 1016.58 1016.74 1016.78 1016.86 1016.94 1017.06 1017.18 1017.30 1017.38 1017.50 1017.66 1017.78 1017.86 1017.98 1018.14 1018.26 1018.38 1018.50 1018.62 1018.74 1018.86 1018.98 1019.14 1019.26 1019.34 1019.46 1019.54 1019.62 1019.74 1019.86 1020.02 1020.14 1020.26 1020.34 1020.50 1020.62 1020.74 1020.86 1021.02 1021.14
1013.18 1013.18 1013.18 1013.30 1013.38 1013.54 1013.74 1013.98 1014.14 1014.34 1014.46 1014.58 1014.70 1014.74 1014.82 1014.90 1015.06 1015.22 1015.34 1015.42 1015.50 1015.58 1015.74 1015.82 1015.90 1016.02 1016.10 1016.18 1016.34 1016.50 1016.66 1016.78 1016.86 1016.98 1017.06 1017.18 1017.30 1017.38 1017.46 1017.58 1017.74 1017.86 1017.98 1018.10 1018.22 1018.34 1018.46 1018.58 1018.66 1018.82 1018.98 1019.14 1019.26 1019.34 1019.46 1019.54 1019.62 1019.74 1019.86 1020.02 1020.14 1020.22 1020.34 1020.50 1020.62 1020.78 1020.90 1021.02 1021.14
1013.30 1013.30 1013.26 1013.26 1013.30 1013.42 1013.62 1013.86 1014.10 1014.30 1014.50 1014.62 1014.74 1014.78 1014.86 1014.90 1015.02 1015.18 1015.30 1015.38 1015.46 1015.54 1015.66 1015.82 1015.86 1015.98 1016.10 1016.18 1016.30 1016.46 1016.58 1016.78 1016.90 1016.98 1017.06 1017.18 1017.30 1017.42 1017.50 1017.62 1017.74 1017.86 1017.98 1018.06 1018.14 1018.30 1018.46 1018.58 1018.66 1018.78 1018.90 1019.06 1019.18 1019.30 1019.46 1019.54 1019.62 1019.74 1019.86 1019.98 1020.10 1020.26 1020.42 1020.54 1020.70 1020.78 1020.90 1021.02 1021.18
1013.38 1013.38 1013.42 1013.42 1013.30 1013.30 1013.46 1013.74 1014.06 1014.30 1014.50 1014.62 1014.74 1014.82 1014.86 1014.94 1015.06 1015.18 1015.22 1015.30 1015.42 1015.50 1015.62 1015.78 1015.86 1015.98 1016.10 1016.22 1016.30 1016.38 1016.54 1016.66 1016.82 1016.94 1017.10 1017.22 1017.30 1017.42 1017.50 1017.62 1017.74 1017.86 1018.02 1018.10 1018.18 1018.30 1018.46 1018.54 1018.66 1018.78 1018.90 1019.06 1019.18 1019.30 1019.46 1019.54 1019.62 1019.74 1019.86 1019.98 1020.10 1020.30 1020.46 1020.58 1020.74 1020.86 1020.94 1021.06 1021.18
1013.34 1013.46 1013.54 1013.58 1013.38 1013.18 1013.18 1013.54 1013.98 1014.30 1014.58 1014.66 1014.74 1014.86 1014.90 1014.98 1015.06 1015.18 1015.22 1015.30 1015.42 1015.50 1015.58 1015.70 1015.82 1015.98 1016.10 1016.22 1016.26 1016.30 1016.42 1016.50 1016.62 1016.78 1016.98 1017.14 1017.30 1017.38 1017.50 1017.58 1017.70 1017.86 1017.98 1018.06 1018.18 1018.30 1018.42 1018.54 1018.66 1018.78 1018.94 1019.06 1019.18 1019.30 1019.42 1019.54 1019.62 1019.74 1019.82 1019.98 1020.14 1020.30 1020.50 1020.62 1020.78 1020.90 1021.02 1021.10 1021.26
1013.38 1013.46 1013.58 1013.62 1013.42 1013.14 1013.06 1013.30 1013.78 1014.22 1014.50 1014.66 1014.74 1014.86 1014.90 1014.98 1015.06 1015.18 1015.26 1015.30 1015.42 1015.46 1015.54 1015.66 1015.74 1015.90 1016.06 1016.14 1016.26 1016.30 1016.30 1016.42 1016.54 1016.70 1016.86 1017.06 1017.26 1017.42 1017.50 1017.58 1017.66 1017.82 1017.94 1018.02 1018.14 1018.30 1018.42 1018.50 1018.66 1018.82 1018.98 1019.10 1019.22 1019.30 1019.46 1019.54 1019.62 1019.74 1019.86 1020.02 1020.14 1020.34 1020.50 1020.66 1020.82 1020.94 1021.02 1021.18 1021.30
1013.46 1013.46 1013.58 1013.58 1013.46 1013.22 1013.14 1013.26 1013.62 1014.02 1014.38 1014.58 1014.74 1014.86 1014.86 1014.98 1015.02 1015.14 1015.22 1015.30 1015.38 1015.46 1015.54 1015.58 1015.70 1015.82 1015.98 1016.14 1016.22 1016.30 1016.30 1016.42 1016.50 1016.66 1016.82 1016.94 1017.18 1017.38 1017.50 1017.58 1017.70 1017.82 1017.94 1018.06 1018.14 1018.30 1018.42 1018.54 1018.66 1018.82 1018.98 1019.10 1019.22 1019.34 1019.46 1019.58 1019.62 1019.74 1019.86 1020.02 1020.18 1020.38 1020.54 1020.70 1020.86 1020.94 1021.06 1021.18 1021.30
1013.58 1013.50 1013.46 1013.46 1013.42 1013.34 1013.30 1013.38 1013.62 1013.94 1014.26 1014.54 1014.74 1014.82 1014.90 1014.98 1015.06 1015.18 1015.22 1015.30 1015.34 1015.42 1015.50 1015.58 1015.70 1015.78 1015.94 1016.10 1016.22 1016.26 1016.30 1016.42 1016.54 1016.66 1016.74 1016.86 1017.14 1017.34 1017.50 1017.58 1017.70 1017.82 1017.94 1018.06 1018.14 1018.26 1018.38 1018.54 1018.66 1018.78 1018.90 1019.06 1019.22 1019.34 1019.46 1019.54 1019.62 1019.74 1019.86 1020.02 1020.18 1020.38 1020.58 1020.70 1020.82 1020.98 1021.10 1021.26 1021.42
1013.74 1013.58 1013.46 1013.38 1013.34 1013.38 1013.42 1013.50 1013.66 1013.86 1014.14 1014.42 1014.62 1014.82 1014.98 1015.06 1015.14 1015.18 1015.22 1015.26 1015.30 1015.38 1015.50 1015.58 1015.70 1015.78 1015.90 1016.02 1016.18 1016.30 1016.34 1016.38 1016.50 1016.58 1016.70 1016.86 1017.10 1017.30 1017.46 1017.54 1017.70 1017.78 1017.90 1018.02 1018.14 1018.34 1018.46 1018.58 1018.66 1018.78 1018.90 1019.06 1019.22 1019.38 1019.46 1019.58 1019.66 1019.74 1019.86 1020.02 1020.14 1020.38 1020.58 1020.74 1020.86 1020.98 1021.10 1021.26 1021.42
1013.78 1013.62 1013.46 1013.38 1013.34 1013.38 1013.46 1013.46 1013.50 1013.66 1013.90 1014.18 1014.46 1014.74 1014.98 1015.14 1015.18 1015.22 1015.22 1015.26 1015.30 1015.38 1015.50 1015.58 1015.70 1015.78 1015.90 1016.02 1016.14 1016.26 1016.30 1016.38 1016.46 1016.46 1016.58 1016.78 1017.02 1017.22 1017.38 1017.50 1017.66 1017.78 1017.90 1018.02 1018.18 1018.38 1018.54 1018.58 1018.70 1018.82 1018.94 1019.06 1019.26 1019.42 1019.50 1019.62 1019.70 1019.78 1019.86 1020.02 1020.14 1020.34 1020.58 1020.70 1020.86 1020.98 1021.10 1021.22 1021.42
1013.82 1013.74 1013.66 1013.58 1013.58 1013.46 1013.34 1013.18 1013.14 1013.30 1013.66 1014.02 1014.30 1014.58 1014.86 1015.10 1015.18 1015.22 1015.26 1015.22 1015.30 1015.38 1015.50 1015.58 1015.70 1015.82 1015.94 1016.02 1016.14 1016.18 1016.26 1016.34 1016.38 1016.38 1016.46 1016.70 1016.94 1017.18 1017.30 1017.46 1017.58 1017.74 1017.86 1018.02 1018.18 1018.34 1018.50 1018.62 1018.74 1018.86 1018.98 1019.14 1019.30 1019.42 1019.58 1019.66 1019.74 1019.86 1019.94 1020.06 1020.22 1020.38 1020.54 1020.66 1020.82 1020.94 1021.06 1021.22 1021.42
1013.98 1013.94 1013.94 1013.86 1013.82 1013.58 1013.18 1012.82 1012.82 1013.10 1013.54 1013.90 1014.14 1014.42 1014.66 1014.90 1015.10 1015.18 1015.18 1015.18 1015.26 1015.34 1015.46 1015.58 1015.70 1015.82 1015.90 1016.02 1016.10 1016.14 1016.22 1016.30 1016.34 1016.38 1016.46 1016.62 1016.86 1017.06 1017.26 1017.42 1017.58 1017.70 1017.82 1017.98 1018.14 1018.34 1018.50 1018.62 1018.78 1018.90 1019.06 1019.18 1019.30 1019.46 1019.58 1019.70 1019.82 1019.90 1020.02 1020.14 1020.30 1020.46 1020.58 1020.70 1020.78 1020.90 1021.06 1021.26 1021.46
1014.18 1014.18 1014.14 1014.14 1014.02 1013.66 1013.14 1012.70 1012.74 1013.02 1013.46 1013.86 1014.14 1014.30 1014.50 1014.74 1014.90 1015.06 1015.14 1015.18 1015.22 1015.26 1015.38 1015.58 1015.70 1015.82 1015.90 1015.98 1016.06 1016.14 1016.14 1016.26 1016.30 1016.38 1016.46 1016.58 1016.78 1017.02 1017.18 1017.34 1017.50 1017.66 1017.82 1017.98 1018.18 1018.34 1018.50 1018.66 1018.78 1018.94 1019.06 1019.22 1019.38 1019.50 1019.62 1019.74 1019.86 1019.98 1020.10 1020.22 1020.34 1020.46 1020.58 1020.74 1020.82 1020.90 1021.02 1021.22 1021.46
1014.30 1014.30 1014.30 1014.26 1014.14 1013.74 1013.22 1012.82 1012.86 1013.14 1013.46 1013.78 1014.06 1014.30 1014.42 1014.58 1014.74 1014.94 1015.06 1015.14 1015.22 1015.30 1015.34 1015.50 1015.66 1015.78 1015.86 1015.94 1016.02 1016.10 1016.14 1016.18 1016.26 1016.34 1016.46 1016.58 1016.74 1016.94 1017.10 1017.30 1017.46 1017.62 1017.82 1018.02 1018.14 1018.34 1018.50 1018.70 1018.82 1018.94 1019.06 1019.22 1019.42 1019.58 1019.70 1019.82 1019.94 1020.06 1020.14 1020.30 1020.42 1020.50 1020.62 1020.78 1020.86 1020.94 1021.06 1021.22 1021.46
1014.26 1014.30 1014.34 1014.30 1014.18 1013.82 1013.42 1013.18 1013.18 1013.30 1013.46 1013.74 1013.98 1014.14 1014.30 1014.46 1014.66 1014.82 1014.94 1015.06 1015.18 1015.30 1015.38 1015.50 1015.58 1015.74 1015.86 1015.94 1016.02 1016.06 1016.10 1016.14 1016.22 1016.30 1016.46 1016.58 1016.74 1016.86 1017.02 1017.26 1017.46 1017.62 1017.82 1018.02 1018.18 1018.34 1018.50 1018.66 1018.82 1018.94 1019.10 1019.26 1019.42 1019.58 1019.74 1019.86 1020.02 1020.14 1020.26 1020.34 1020.46 1020.58 1020.66 1020.78 1020.86 1020.98 1021.10 1021.26 1021.46
1014.10 1014.26 1014.30 1014.30 1014.18 1013.98 1013.70 1013.54 1013.46 1013.46 1013.50 1013.58 1013.74 1013.98 1014.18 1014.34 1014.58 1014.74 1014.90 1014.98 1015.10 1015.22 1015.34 1015.46 1015.58 1015.70 1015.78 1015.86 1015.98 1016.06 1016.10 1016.14 1016.22 1016.30 1016.42 1016.58 1016.74 1016.86 1016.98 1017.18 1017.38 1017.58 1017.82 1018.02 1018.18 1018.34 1018.50 1018.70 1018.82 1018.94 1019.06 1019.22 1019.38 1019.54 1019.70 1019.86 1020.02 1020.18 1020.30 1020.46 1020.54 1020.62 1020.74 1020.78 1020.86 1020.98 1021.14 1021.30 1021.46
1013.86 1014.06 1014.18 1014.22 1014.22 1014.14 1014.02 1013.86 1013.78 1013.62 1013.46 1013.30 1013.46 1013.70 1013.94 1014.18 1014.50 1014.74 1014.86 1014.94 1015.02 1015.18 1015.30 1015.46 1015.58 1015.66 1015.74 1015.86 1015.94 1016.02 1016.14 1016.18 1016.26 1016.30 1016.42 1016.54 1016.70 1016.82 1016.94 1017.14 1017.34 1017.58 1017.78 1018.02 1018.14 1018.34 1018.50 1018.70 1018.86 1018.94 1019.06 1019.18 1019.34 1019.50 1019.66 1019.86 1020.02 1020.18 1020.34 1020.50 1020.58 1020.74 1020.78 1020.86 1020.90 1021.02 1021.18 1021.34 1021.54
1013.74 1013.94 1014.06 1014.14 1014.22 1014.26 1014.22 1014.14 1014.10 1013.86 1013.54 1013.22 1013.22 1013.42 1013.66 1014.02 1014.38 1014.66 1014.82 1014.86 1015.02 1015.14 1015.30 1015.42 1015.54 1015.62 1015.74 1015.86 1015.94 1016.02 1016.10 1016.14 1016.26 1016.30 1016.42 1016.50 1016.66 1016.78 1016.94 1017.10 1017.30 1017.54 1017.74 1017.94 1018.14 1018.30 1018.46 1018.62 1018.82 1018.94 1019.02 1019.18 1019.30 1019.46 1019.62 1019.82 1019.98 1020.14 1020.30 1020.46 1020.58 1020.74 1020.86 1020.90 1021.02 1021.14 1021.30 1021.46 1021.62
1013.74 1013.90 1014.02 1014.14 1014.22 1014.30 1014.30 1014.30 1014.26 1014.06 1013.74 1013.34 1013.22 1013.30 1013.54 1013.86 1014.18 1014.46 1014.70 1014.82 1014.98 1015.14 1015.30 1015.38 1015.46 1015.58 1015.70 1015.82 1015.94 1016.02 1016.02 1016.10 1016.18 1016.30 1016.38 1016.50 1016.66 1016.78 1016.90 1017.10 1017.30 1017.46 1017.66 1017.86 1018.02 1018.14 1018.30 1018.54 1018.70 1018.86 1019.02 1019.10 1019.30 1019.46 1019.62 1019.78 1019.94 1020.10 1020.22 1020.34 1020.50 1020.74 1020.86 1021.02 1021.10 1021.22 1021.34 1021.50 1021.66
1013.82 1013.94 1014.06 1014.18 1014.26 1014.30 1014.34 1014.38 1014.34 1014.18 1013.86 1013.46 1013.30 1013.46 1013.66 1013.86 1014.06 1014.30 1014.50 1014.74 1014.98 1015.18 1015.30 1015.38 1015.46 1015.58 1015.66 1015.78 1015.90 1016.02 1016.06 1016.10 1016.14 1016.22 1016.30 1016.46 1016.58 1016.74 1016.86 1017.06 1017.26 1017.46 1017.62 1017.74 1017.86 1018.02 1018.18 1018.38 1018.54 1018.74 1018.86 1019.06 1019.26 1019.46 1019.66 1019.86 1019.98 1020.06 1020.18 1020.30 1020.42 1020.62 1020.86 1021.02 1021.18 1021.34 1021.46 1021.58 1021.74
1013.86 1013.98 1014.06 1014.18 1014.30 1014.34 1014.38 1014.38 1014.38 1014.22 1013.94 1013.58 1013.46 1013.58 1013.86 1014.02 1014.10 1014.18 1014.34 1014.58 1014.86 1015.10 1015.30 1015.38 1015.46 1015.58 1015.66 1015.74 1015.86 1015.98 1016.06 1016.10 1016.14 1016.22 1016.30 1016.38 1016.54 1016.74 1016.90 1017.06 1017.22 1017.42 1017.54 1017.62 1017.74 1017.90 1018.06 1018.26 1018.46 1018.58 1018.74 1018.98 1019.18 1019.38 1019.58 1019.82 1019.98 1020.10 1020.18 1020.30 1020.38 1020.50 1020.70 1020.90 1021.14 1021.34 1021.54 1021.74 1021.86
1013.86 1013.98 1014.06 1014.14 1014.30 1014.34 1014.38 1014.38 1014.34 1014.22 1014.02 1013.78 1013.66 1013.74 1013.94 1014.14 1014.18 1014.18 1014.26 1014.42 1014.66 1014.94 1015.18 1015.30 1015.46 1015.50 1015.58 1015.74 1015.82 1015.90 1016.02 1016.10 1016.14 1016.22 1016.30 1016.30 1016.46 1016.66 1016.86 1017.02 1017.18 1017.30 1017.46 1017.50 1017.62 1017.78 1017.94 1018.10 1018.30 1018.46 1018.66 1018.86 1019.10 1019.30 1019.50 1019.74 1019.94 1020.06 1020.14 1020.30 1020.38 1020.50 1020.66 1020.82 1021.02 1021.26 1021.50 1021.74 1021.86
1013.90 1013.98 1014.06 1014.14 1014.26 1014.30 1014.34 1014.34 1014.30 1014.22 1014.10 1013.90 1013.78 1013.86 1014.02 1014.22 1014.30 1014.30 1014.30 1014.30 1014.50 1014.70 1014.90 1015.14 1015.30 1015.46 1015.58 1015.66 1015.74 1015.82 1015.94 1016.06 1016.14 1016.22 1016.30 1016.34 1016.46 1016.62 1016.86 1016.98 1017.10 1017.26 1017.34 1017.42 1017.50 1017.66 1017.82 1017.98 1018.14 1018.30 1018.54 1018.74 1019.02 1019.22 1019.46 1019.70 1019.86 1020.02 1020.14 1020.22 1020.34 1020.46 1020.62 1020.78 1020.98 1021.18 1021.42 1021.66 1021.82
1013.90 1013.98 1014.06 1014.14 1014.18 1014.26 1014.30 1014.30 1014.26 1014.22 1014.10 1013.98 1013.86 1013.86 1014.02 1014.26 1014.38 1014.42 1014.42 1014.38 1014.38 1014.46 1014.66 1014.90 1015.18 1015.34 1015.46 1015.58 1015.66 1015.78 1015.90 1016.02 1016.14 1016.22 1016.30 1016.34 1016.46 1016.62 1016.82 1016.94 1017.06 1017.18 1017.26 1017.30 1017.42 1017.54 1017.70 1017.86 1018.02 1018.22 1018.42 1018.70 1018.90 1019.18 1019.38 1019.58 1019.78 1019.94 1020.06 1020.22 1020.34 1020.46 1020.62 1020.78 1020.98 1021.18 1021.42 1021.58 1021.78
1013.90 1013.98 1014.02 1014.06 1014.14 1014.18 1014.22 1014.22 1014.18 1014.14 1014.10 1013.98 1013.86 1013.86 1014.02 1014.30 1014.46 1014.50 1014.50 1014.46 1014.34 1014.34 1014.46 1014.74 1015.02 1015.22 1015.34 1015.46 1015.58 1015.70 1015.82 1015.98 1016.10 1016.22 1016.30 1016.30 1016.38 1016.54 1016.74 1016.90 1017.02 1017.14 1017.18 1017.18 1017.30 1017.46 1017.58 1017.74 1017.90 1018.10 1018.30 1018.58 1018.86 1019.10 1019.30 1019.50 1019.70 1019.86 1020.02 1020.18 1020.30 1020.46 1020.58 1020.78 1020.94 1021.14 1021.30 1021.54 1021.74
1013.86 1013.90 1013.94 1013.98 1014.02 1014.10 1014.14 1014.14 1014.14 1014.10 1014.02 1013.94 1013.82 1013.82 1013.98 1014.26 1014.46 1014.58 1014.58 1014.46 1014.38 1014.30 1014.38 1014.58 1014.90 1015.18 1015.30 1015.46 1015.54 1015.62 1015.74 1015.94 1016.06 1016.18 1016.26 1016.26 1016.30 1016.50 1016.70 1016.86 1016.98 1017.06 1017.10 1017.10 1017.18 1017.30 1017.46 1017.66 1017.82 1018.02 1018.22 1018.50 1018.78 1019.06 1019.30 1019.46 1019.62 1019.78 1019.94 1020.10 1020.26 1020.42 1020.58 1020.74 1020.90 1021.10 1021.26 1021.46 1021.58
1013.86 1013.82 1013.82 1013.86 1013.90 1013.98 1014.02 1014.10 1014.10 1014.06 1014.02 1013.94 1013.86 1013.82 1013.94 1014.14 1014.42 1014.54 1014.58 1014.50 1014.38 1014.30 1014.30 1014.50 1014.86 1015.10 1015.26 1015.38 1015.46 1015.58 1015.74 1015.86 1016.02 1016.10 1016.18 1016.26 1016.34 1016.46 1016.62 1016.74 1016.86 1016.98 1017.02 1017.02 1017.10 1017.22 1017.38 1017.54 1017.74 1017.90 1018.14 1018.46 1018.74 1019.06 1019.30 1019.46 1019.62 1019.82 1019.98 1020.14 1020.30 1020.42 1020.54 1020.66 1020.82 1021.02 1021.18 1021.38 1021.46
1013.82 1013.78 1013.74 1013.74 1013.78 1013.86 1013.94 1014.02 1014.02 1014.02 1013.98 1013.94 1013.82 1013.78 1013.86 1014.06 1014.34 1014.50 1014.54 1014.50 1014.34 1014.26 1014.30 1014.46 1014.74 1015.02 1015.22 1015.30 1015.38 1015.50 1015.66 1015.78 1015.98 1016.10 1016.18 1016.30 1016.42 1016.50 1016.58 1016.70 1016.74 1016.82 1016.86 1016.90 1017.02 1017.14 1017.30 1017.46 1017.62 1017.86 1018.10 1018.42 1018.78 1019.10 1019.30 1019.46 1019.66 1019.86 1020.02 1020.22 1020.38 1020.50 1020.58 1020.70 1020.82 1020.98 1021.14 1021.30 1021.46
1013.74 1013.74 1013.70 1013.66 1013.70 1013.74 1013.86 1013.90 1013.98 1013.98 1013.94 1013.86 1013.74 1013.70 1013.74 1013.98 1014.26 1014.46 1014.54 1014.46 1014.34 1014.30 1014.30 1014.46 1014.74 1015.02 1015.18 1015.26 1015.34 1015.46 1015.58 1015.70 1015.86 1016.06 1016.22 1016.34 1016.46 1016.54 1016.58 1016.66 1016.66 1016.70 1016.74 1016.86 1016.90 1016.98 1017.10 1017.30 1017.50 1017.78 1018.06 1018.46 1018.86 1019.14 1019.30 1019.46 1019.70 1019.90 1020.06 1020.22 1020.42 1020.58 1020.66 1020.74 1020.86 1021.02 1021.18 1021.30 1021.42
1013.58 1013.58 1013.58 1013.58 1013.62 1013.70 1013.74 1013.82 1013.86 1013.86 1013.82 1013.74 1013.62 1013.58 1013.66 1013.90 1014.18 1014.42 1014.54 1014.50 1014.42 1014.38 1014.42 1014.50 1014.74 1015.02 1015.18 1015.26 1015.30 1015.42 1015.46 1015.62 1015.82 1016.02 1016.18 1016.30 1016.42 1016.54 1016.58 1016.66 1016.70 1016.70 1016.74 1016.78 1016.78 1016.86 1017.02 1017.18 1017.42 1017.74 1018.10 1018.50 1018.86 1019.14 1019.30 1019.46 1019.70 1019.90 1020.10 1020.22 1020.42 1020.54 1020.66 1020.82 1020.98 1021.10 1021.22 1021.34 1021.46
1013.46 1013.46 1013.50 1013.54 1013.58 1013.58 1013.62 1013.70 1013.74 1013.74 1013.74 1013.66 1013.54 1013.54 1013.66 1013.90 1014.18 1014.46 1014.54 1014.50 1014.50 1014.46 1014.46 1014.54 1014.74 1014.98 1015.14 1015.18 1015.26 1015.30 1015.42 1015.54 1015.74 1015.90 1016.06 1016.22 1016.34 1016.46 1016.58 1016.66 1016.74 1016.74 1016.74 1016.74 1016.70 1016.74 1016.90 1017.14 1017.30 1017.70 1018.14 1018.54 1018.86 1019.10 1019.30 1019.54 1019.74 1019.94 1020.14 1020.30 1020.46 1020.58 1020.74 1020.82 1020.94 1021.10 1021.30 1021.42 1021.50
1013.34 1013.38 1013.38 1013.42 1013.46 1013.50 1013.54 1013.54 1013.58 1013.62 1013.66 1013.58 1013.54 1013.58 1013.74 1013.94 1014.22 1014.46 1014.54 1014.54 1014.50 1014.46 1014.46 1014.54 1014.70 1014.90 1015.10 1015.18 1015.22 1015.26 1015.34 1015.50 1015.62 1015.78 1015.94 1016.10 1016.26 1016.38 1016.50 1016.58 1016.74 1016.78 1016.78 1016.74 1016.62 1016.70 1016.86 1017.02 1017.30 1017.70 1018.14 1018.50 1018.82 1019.06 1019.30 1019.54 1019.78 1020.02 1020.14 1020.34 1020.50 1020.66 1020.78 1020.86 1020.98 1021.14 1021.26 1021.34 1021.42
1013.38 1013.34 1013.30 1013.30 1013.34 1013.38 1013.42 1013.42 1013.46 1013.54 1013.58 1013.58 1013.58 1013.62 1013.78 1013.98 1014.18 1014.38 1014.46 1014.46 1014.50 1014.50 1014.50 1014.54 1014.62 1014.82 1015.02 1015.18 1015.18 1015.26 1015.30 1015.46 1015.58 1015.66 1015.82 1015.98 1016.14 1016.26 1016.38 1016.54 1016.66 1016.78 1016.82 1016.74 1016.66 1016.66 1016.74 1016.94 1017.26 1017.66 1018.02 1018.42 1018.74 1018.98 1019.18 1019.46 1019.74 1020.02 1020.18 1020.38 1020.58 1020.74 1020.86 1020.94 1021.02 1021.18 1021.30 1021.38 1021.30
1013.50 1013.46 1013.34 1013.30 1013.30 1013.30 1013.30 1013.34 1013.38 1013.42 1013.46 1013.50 1013.58 1013.70 1013.82 1013.98 1014.14 1014.30 1014.42 1014.46 1014.50 1014.46 1014.46 1014.50 1014.58 1014.74 1014.94 1015.06 1015.18 1015.22 1015.30 1015.38 1015.50 1015.58 1015.70 1015.86 1016.02 1016.10 1016.26 1016.42 1016.58 1016.70 1016.74 1016.74 1016.74 1016.74 1016.74 1016.86 1017.22 1017.58 1018.02 1018.38 1018.62 1018.86 1019.14 1019.42 1019.70 1019.98 1020.22 1020.38 1020.54 1020.74 1020.86 1020.98 1021.10 1021.18 1021.30 1021.42 1021.34
1013.58 1013.54 1013.42 1013.30 1013.26 1013.26 1013.30 1013.30 1013.34 1013.38 1013.46 1013.50 1013.58 1013.66 1013.78 1013.90 1014.06 1014.22 1014.34 1014.46 1014.50 1014.46 1014.46 1014.50 1014.58 1014.74 1014.86 1015.02 1015.14 1015.22 1015.30 1015.38 1015.46 1015.54 1015.62 1015.74 1015.86 1016.02 1016.14 1016.30 1016.46 1016.58 1016.70 1016.74 1016.82 1016.78 1016.74 1016.86 1017.18 1017.58 1017.94 1018.30 1018.58 1018.78 1019.02 1019.30 1019.62 1019.94 1020.18 1020.34 1020.46 1020.58 1020.82 1021.02 1021.14 1021.22 1021.30 1021.38 1021.46
Wind_Speed
5 5 4 5 4 4 4 3 3 4 4 4 4 4 4 4 4 4 4 4 4 4 4 4 4 4 5 6 7 7 7 7 6 6 7 8 7 7 8 8 7 7 7 7 7 7 6 5 4 4 3 3 4 3 3 3 4 4 4 4 4 5 5 5 5 5 5 5 4
5 5 5 5 5 4 3 3 3 3 4 3 4 4 4 4 4 4 4 3 3 4 4 4 5 5 6 6 6 7 7 8 8 7 7 7 8 8 8 8 7 7 7 8 8 6 6 5 5 4 3 3 3 4 4 4 4 5 5 5 4 4 4 5 5 5 6 5 4
5 5 5 5 5 4 4 4 4 4 4 3 3 3 3 3 3 3 3 3 3 3 4 4 5 6 7 6 5 5 7 9 9 8 7 7 8 8 9 8 8 8 8 8 7 7 6 6 5 4 4 3 4 4 4 4 5 5 5 5 4 4 4 4 5 5 5 4 5
6 6 6 5 6 5 5 4 4 4 4 3 3 3 3 3 3 3 3 3 3 3 4 4 5 6 6 6 5 4 5 8 9 9 7 7 8 8 9 9 8 8 8 8 7 7 7 7 5 4 4 5 5 5 4 4 5 5 4 4 4 4 4 4 4 4 4 4 4
6 6 6 6 6 6 5 4 5 5 4 3 3 3 3 3 3 3 3 3 3 4 4 5 5 5 6 6 6 5 5 6 8 8 7 7 8 8 9 9 9 8 8 8 8 7 7 7 5 4 4 5 4 4 5 5 5 5 4 3 3 3 4 4 4 4 4 4 4
6 6 6 5 5 5 4 4 5 5 4 3 4 4 4 3 3 3 4 4 4 4 5 6 6 6 6 7 7 6 5 4 6 7 7 7 7 8 8 9 9 8 8 8 8 8 7 7 4 4 4 4 4 4 5 6 6 5 4 4 3 3 4 4 4 4 4 5 5
6 5 5 5 5 5 4 4 4 4 4 4 4 5 5 4 4 4 4 4 4 4 5 5 5 6 6 7 7 6 5 4 5 6 7 7 7 8 8 8 8 8 8 8 8 7 7 6 4 4 4 4 4 5 6 6 6 5 5 5 4 3 4 5 4 4 5 7 7
4 4 5 5 6 6 6 6 5 5 4 4 4 5 5 5 5 5 5 4 4 4 5 4 5 6 6 7 7 7 7 5 5 5 6 7 7 8 8 8 8 8 8 8 7 7 6 5 4 4 4 4 4 5 6 7 6 6 6 6 4 4 4 4 4 5 6 8 8
3 4 5 6 6 7 7 7 6 5 4 4 4 5 5 6 6 6 5 5 4 5 5 5 6 6 6 6 7 8 7 7 6 5 5 6 7 7 7 7 8 7 7 7 7 7 6 4 4 4 4 4 4 5 6 7 7 7 6 6 5 4 4 4 5 6 7 8 8
4 4 5 5 7 8 8 7 6 5 4 4 4 4 5 6 6 6 5 4 4 5 5 5 6 6 6 5 6 7 7 7 7 6 6 5 6 7 7 7 7 7 7 6 6 7 6 5 4 4 5 5 6 6 7 7 8 7 6 5 5 6 6 5 6 6 7 7 8
5 5 4 5 7 8 9 9 7 5 4 4 4 4 5 6 6 5 5 4 4 5 6 6 7 7 6 5 5 6 6 7 7 7 7 6 6 6 7 7 7 7 7 7 6 6 5 5 5 6 6 6 6 7 7 8 8 7 7 6 6 7 7 6 6 6 6 7 7
5 5 5 5 6 8 9 9 7 6 5 4 4 4 4 5 5 5 5 5 5 5 5 6 7 7 7 6 5 5 6 7 7 7 7 7 6 6 6 7 7 8 7 7 6 5 5 5 6 7 7 7 6 6 7 8 8 8 7 7 7 7 7 7 7 6 5 6 7
5 5 5 5 5 6 8 8 7 6 5 5 4 4 4 4 5 6 6 5 5 5 5 6 7 8 7 6 6 5 6 6 7 7 7 7 7 6 6 6 7 7 7 7 6 5 5 6 7 8 8 7 6 6 7 8 8 8 8 8 8 8 7 7 7 6 6 7 7
4 5 5 5 5 6 6 7 6 6 5 5 4 3 3 4 5 5 5 5 5 5 4 5 6 7 7 6 6 6 6 6 7 7 7 7 7 6 6 6 7 7 7 6 6 6 6 7 8 8 8 8 7 7 7 7 7 8 8 8 8 8 8 7 7 7 7 8 8
4 4 5 6 6 6 6 6 6 6 6 5 4 3 3 3 4 5 5 5 5 5 4 5 5 5 6 6 7 7 7 6 7 8 8 8 8 7 7 6 7 7 6 6 6 6 7 7 8 8 8 8 8 7 7 7 7 7 8 8 8 8 8 8 8 8 8 8 8
3 4 5 5 6 6 7 7 6 6 6 6 5 4 3 3 4 4 5 5 5 5 5 5 5 5 5 6 6 7 7 7 7 7 8 8 8 8 8 7 7 7 7 6 6 6 6 7 7 8 8 8 8 7 7 7 7 7 7 8 8 8 8 8 8 8 8 9 9
2 3 4 5 6 7 8 8 7 7 7 6 6 5 5 4 4 4 5 5 5 5 5 5 5 5 5 5 6 6 6 7 7 7 7 8 8 9 8 8 7 7 7 7 7 7 7 7 7 7 8 8 8 7 7 7 6 7 7 7 7 8 8 8 9 9 9 9 9
1 2 3 4 6 7 8 8 8 8 7 7 6 6 5 5 5 5 5 4 5 6 6 6 5 5 5 5 5 5 6 7 7 7 7 8 8 9 9 8 8 7 7 7 7 8 8 7 7 7 7 7 7 7 7 6 6 6 7 7 7 7 8 8 8 8 9 9 9
2 3 4 5 5 5 6 7 8 8 8 7 6 5 6 6 6 5 5 4 5 6 7 7 6 6 5 6 5 5 6 6 6 7 7 7 8 9 9 8 8 7 7 7 8 8 8 8 8 7 7 7 7 6 6 6 6 6 6 7 7 7 7 7 8 8 8 9 9
3 4 5 5 4 4 4 6 7 8 8 7 6 6 6 6 6 6 6 5 5 6 7 7 7 6 6 6 6 5 5 5 6 6 7 7 8 8 9 8 8 7 7 7 8 8 8 8 8 8 8 8 7 7 7 6 6 6 6 6 6 7 7 7 7 8 8 8 8
3 4 4 5 4 2 3 5 6 7 8 8 7 6 6 6 6 6 6 6 6 6 7 7 7 7 7 6 6 6 5 5 6 6 6 6 7 8 9 9 8 7 7 7 7 8 8 8 8 8 8 8 8 7 7 6 6 6 6 6 6 6 7 7 7 8 8 8 8
4 3 4 4 3 2 2 3 5 7 8 8 8 7 6 5 5 6 6 6 6 6 7 7 7 7 7 7 7 6 5 5 5 6 6 6 6 7 8 8 8 8 7 7 7 8 8 8 8 8 8 8 8 8 7 7 7 6 6 6 6 6 6 7 7 8 8 8 7
3 3 3 3 3 3 2 2 4 5 7 9 9 8 7 6 5 5 6 6 6 6 6 6 6 6 6 6 6 6 6 5 5 6 6 6 6 6 7 8 8 8 8 7 7 8 8 7 7 7 8 8 8 8 8 7 7 7 7 7 7 6 6 6 7 7 7 7 7
3 2 2 2 3 3 3 3 3 4 5 8 9 9 8 7 6 6 6 6 6 6 6 5 5 5 5 5 6 6 6 6 6 6 6 6 6 6 7 8 8 8 7 7 7 8 8 7 7 7 7 7 7 7 7 7 7 7 7 7 7 7 6 6 6 7 7 7 6
2 2 2 2 2 3 3 4 4 3 3 5 7 8 8 8 7 7 7 6 6 5 5 5 5 5 5 5 5 5 6 7 7 7 7 6 6 6 6 7 7 6 6 7 10 12 11 9 8 7 6 6 7 7 6 6 7 7 7 8 8 7 7 6 6 6 6 7 6
2 2 2 2 2 2 3 4 4 3 2 4 6 6 6 7 7 8 8 7 6 5 5 4 4 5 5 5 5 5 5 6 6 7 7 7 6 6 6 6 6 6 6 9 13 15 15 13 11 9 7 6 6 6 6 6 6 7 7 8 8 8 7 7 6 5 5 5 5
2 2 2 2 2 3 3 3 3 2 2 4 5 5 5 5 6 8 9 8 7 5 4 4 4 5 5 5 6 6 5 5 5 6 7 7 7 7 6 6 5 5 7 11 15 16 16 15 14 12 10 7 7 6 6 6 6 6 6 7 7 8 8 8 8 7 5 4 4
3 3 3 3 3 3 3 3 2 2 2 3 4 5 5 4 6 7 8 9 8 7 5 4 4 4 4 4 6 6 6 5 5 5 6 7 7 7 6 6 5 6 9 13 16 16 16 16 16 14 12 9 7 6 6 6 6 6 5 6 6 7 7 7 7 7 7 5 4
4 4 4 4 4 4 3 3 3 3 2 3 4 5 5 4 5 6 7 8 8 8 6 5 4 4 4 5 6 6 6 6 5 5 5 7 7 7 6 6 6 7 11 15 16 17 16 16 16 16 14 12 8 6 6 6 6 5 5 5 5 6 6 6 6 6 6 6 5
5 5 5 5 5 5 4 4 4 3 3 3 4 5 5 4 4 5 6 7 8 7 6 5 5 5 6 6 6 6 6 6 5 5 6 7 8 7 6 7 6 8 11 16 16 16 16 16 16 16 16 14 9 7 5 5 5 5 5 5 5 6 6 6 7 7 7 6 6
6 6 6 6 5 5 5 4 4 3 3 3 4 5 5 4 4 4 5 5 6 6 6 6 6 6 7 7 6 6 6 6 6 6 7 8 8 8 7 7 7 8 10 15 16 16 16 16 16 16 16 15 10 7 6 6 6 6 5 5 6 6 7 6 7 7 8 7 7
6 7 7 6 6 5 5 4 4 4 4 4 5 5 5 4 3 3 3 3 4 6 7 6 6 6 6 7 6 6 6 6 6 6 7 7 8 8 7 7 7 8 10 14 15 15 16 16 16 16 16 15 11 8 6 6 6 6 6 6 7 7 7 7 7 8 8 8 8
7 7 7 7 6 6 5 5 5 4 4 5 5 6 5 4 3 2 2 3 4 5 6 7 6 6 6 7 7 7 7 7 7 7 7 7 7 7 7 7 7 8 10 13 14 15 15 16 16 16 16 16 10 7 6 6 5 5 5 5 6 7 8 8 8 8 8 9 8
7 7 7 6 6 6 6 6 5 5 5 5 6 6 6 5 3 2 2 2 3 4 5 6 5 5 6 6 6 7 7 7 6 6 6 5 6 6 7 6 5 7 10 12 13 14 15 16 16 17 16 15 9 7 6 6 5 5 5 6 6 6 6 7 8 8 8 8 7
8 7 7 6 6 6 6 6 6 6 5 6 6 6 6 5 3 2 2 2 2 3 4 4 4 4 4 5 6 7 7 7 7 6 6 5 5 5 5 5 5 8 11 12 13 14 15 16 16 17 15 12 8 6 6 6 6 6 6 7 6 6 6 6 7 7 7 7 7
7 7 7 6 6 6 6 6 6 6 6 5 6 6 6 5 3 2 2 3 3 3 4 5 4 4 4 5 5 6 7 8 8 7 7 6 6 5 4 4 4 7 11 13 13 14 15 16 16 16 14 10 6 5 5 6 5 6 6 7 6 6 6 6 6 6 6 6 7
5 7 7 7 6 6 6 6 6 6 5 5 5 6 6 5 3 2 2 3 3 4 4 5 5 4 4 5 5 6 7 8 8 8 8 8 7 6 5 4 3 6 9 13 13 14 15 16 17 16 13 9 6 5 5 5 4 5 6 6 6 6 6 6 6 6 6 5 6
4 5 7 7 6 6 6 6 6 6 5 5 5 5 5 5 4 3 3 3 3 4 4 5 5 4 4 4 5 6 7 8 9 9 9 8 8 7 6 5 3 3 6 10 12 14 15 16 17 16 13 8 7 6 6 5 5 5 5 5 5 4 4 4 5 5 6 6 8
5 4 5 6 6 6 6 6 6 6 6 5 5 5 5 5 4 4 3 3 3 3 4 4 5 4 4 4 4 5 7 8 9 9 9 8 8 8 8 6 4 2 3 5 8 11 15 17 18 17 14 10 8 7 6 5 5 5 5 5 4 4 3 3 4 4 5 6 10
6 4 4 5 5 6 6 6 6 6 5 5 5 5 5 5 4 4 4 3 3 3 4 4 5 5 4 4 4 5 6 7 7 8 9 9 9 9 9 6 5 3 2 3 5 8 13 17 18 18 15 10 8 6 6 6 6 5 5 5 4 4 3 3 3 4 4 4 8
7 5 4 3 4 5 5 5 5 4 4 5 5 5 5 5 5 4 4 3 3 3 3 4 5 5 5 4 4 5 6 7 7 7 8 9 9 10 9 7 5 3 2 2 4 7 10 16 18 18 15 10 8 6 6 6 6 6 5 5 5 5 4 3 3 3 3 3 4
Wind_Direction
151 156 159 159 158 156 155 157 157 161 166 172 173 173 172 170 170 172 172 171 168 163 158 157 154 151 150 156 165 171 176 177 179 173 164 159 159 156 155 157 163 164 162 159 160 159 159 156 154 155 156 157 152 148 145 144 146 145 143 141 140 138 135 132 131 129 127 124 122
154 153 150 148 145 144 145 152 158 164 167 173 170 169 168 168 167 167 167 166 161 156 154 155 153 152 153 159 166 173 176 177 179 176 168 161 159 158 157 161 165 164 161 158 160 160 159 159 158 156 154 151 147 147 145 148 146 143 139 137 137 134 133 130 129 127 125 124 123
150 144 140 140 145 150 157 163 164 165 165 166 164 162 162 164 161 158 156 151 146 147 150 155 155 154 154 157 163 171 175 175 177 174 169 162 160 159 160 163 165 164 161 160 162 161 160 161 160 157 155 153 151 149 148 148 145 142 138 138 136 134 131 129 128 127 125 124 125
142 139 141 149 158 163 166 165 162 160 161 159 155 152 153 154 151 146 141 135 138 145 151 154 156 155 155 155 157 163 170 171 172 170 166 161 160 159 160 162 164 163 161 161 162 161 160 161 160 159 156 155 153 152 150 149 146 142 139 138 135 133 130 130 129 128 126 125 125
146 149 155 160 163 163 159 151 151 152 153 152 152 151 150 147 145 142 141 146 150 151 150 148 151 152 153 153 153 156 162 167 166 165 161 158 156 157 159 160 161 161 160 161 162 160 159 161 158 156 154 155 155 153 149 145 142 138 135 133 133 132 130 130 129 129 128 127 124
159 160 158 154 152 149 143 137 140 143 146 149 153 154 153 151 152 154 156 160 156 149 144 144 144 148 152 154 153 155 159 163 161 159 157 156 155 154 155 156 158 159 159 160 160 160 159 160 155 151 149 149 147 145 143 142 139 136 134 132 133 132 131 131 132 132 130 129 126
162 156 147 139 136 133 129 128 132 135 140 147 158 160 159 155 156 157 160 160 153 149 147 148 146 148 153 157 158 159 161 162 153 153 155 157 157 157 156 157 158 158 158 159 160 160 160 158 153 146 144 142 139 141 142 142 140 139 137 138 138 135 133 133 133 133 133 132 131
152 142 134 130 127 124 123 124 129 133 141 153 163 164 159 151 152 155 158 159 158 156 155 154 149 148 152 158 160 161 161 160 150 150 153 157 160 160 158 157 157 158 158 159 160 160 159 155 150 145 142 140 139 141 142 141 139 139 140 140 139 137 135 136 136 137 137 136 135
141 133 127 126 124 122 122 124 129 136 147 161 166 163 155 149 151 156 160 164 163 160 158 158 153 151 151 156 159 161 161 159 150 147 148 153 159 160 159 156 157 158 159 160 160 159 156 150 146 142 142 140 141 142 143 142 140 140 140 139 137 135 134 133 136 138 138 138 138
140 134 131 132 130 127 125 123 128 137 148 159 162 159 154 151 155 160 165 166 161 160 161 162 158 156 155 156 158 161 163 161 153 148 145 149 156 160 159 158 157 158 159 160 159 156 152 144 140 138 138 138 140 142 143 143 143 142 142 140 136 133 132 132 136 137 139 139 139
143 143 147 151 144 136 130 127 131 139 149 157 161 159 157 155 158 163 167 165 161 162 163 165 163 163 163 164 162 163 164 163 156 151 147 146 154 159 160 158 157 157 157 158 156 153 148 142 138 136 136 136 140 142 144 146 145 143 142 138 136 135 135 135 137 137 137 137 136
149 152 157 163 151 140 132 131 135 142 150 157 162 162 160 158 160 163 166 166 166 164 164 167 169 170 171 173 169 167 164 159 155 151 148 148 152 156 158 156 156 156 156 156 154 150 146 142 138 137 137 138 142 145 148 149 146 142 140 137 137 137 138 138 138 137 135 134 132
155 155 157 158 145 135 131 131 134 140 147 156 163 165 161 157 160 163 167 171 169 165 164 170 172 174 175 175 172 168 163 156 153 152 151 151 152 155 156 156 155 155 155 155 152 148 144 142 141 140 141 143 146 149 151 151 147 144 142 140 140 140 140 139 137 134 132 131 130
155 152 151 148 140 134 130 130 133 137 144 151 158 159 156 153 161 166 171 173 170 164 161 167 172 174 173 170 168 166 162 155 154 154 155 153 155 157 158 157 156 156 156 153 150 146 144 145 145 145 145 145 147 150 152 153 149 147 145 144 144 142 141 140 137 134 132 131 129
156 152 149 146 143 140 138 137 137 138 141 144 146 146 146 153 167 172 174 173 167 160 157 164 167 166 163 160 163 165 163 159 159 158 156 154 158 160 162 160 159 158 156 152 148 146 145 147 148 147 146 145 147 150 153 153 151 149 147 147 145 143 142 140 139 137 135 133 130
160 156 153 151 153 154 154 151 145 141 139 139 139 140 145 159 173 176 175 171 164 158 156 160 159 155 152 155 161 165 166 167 165 160 156 155 162 165 165 163 162 160 157 151 147 145 147 149 148 147 145 145 147 150 152 152 151 149 147 146 144 143 142 142 141 139 137 134 132
175 168 168 170 172 171 166 157 145 139 137 138 141 145 152 165 175 179 178 170 163 159 159 161 156 152 151 156 162 166 169 171 169 162 156 157 164 167 167 165 163 161 157 152 148 146 147 149 147 144 143 144 146 149 150 150 149 147 145 144 143 143 143 144 142 139 137 135 134
231 212 205 201 194 184 169 150 138 134 135 138 143 149 156 164 172 176 176 170 162 160 161 161 158 155 155 159 165 169 172 171 169 162 156 155 163 166 166 164 163 161 158 153 149 148 148 148 145 142 141 142 144 146 147 147 146 144 142 140 140 141 142 143 141 140 138 137 137
254 243 234 226 214 193 164 139 131 130 132 135 140 147 154 161 166 170 171 168 163 163 163 164 161 158 157 159 164 168 170 168 165 158 153 152 160 163 164 162 161 159 157 153 149 148 147 146 144 143 142 141 141 142 142 142 142 141 139 138 139 139 141 141 141 140 139 138 139
246 247 244 238 225 196 154 131 128 129 131 132 135 140 148 156 162 166 168 167 164 164 166 168 165 162 160 159 162 164 165 161 157 152 149 149 158 161 161 159 159 158 156 151 148 147 147 146 146 145 143 142 140 140 140 138 139 138 138 138 139 140 140 141 140 138 136 136 139
228 243 248 248 235 201 151 133 133 134 134 133 133 135 139 146 159 167 170 167 163 164 167 171 168 166 163 161 161 162 160 156 152 149 148 150 157 159 159 157 158 157 154 150 148 148 147 147 148 147 146 143 142 141 141 139 138 138 138 138 139 139 139 139 137 135 135 136 139
207 230 249 260 256 236 181 154 150 146 142 137 133 131 132 139 157 169 172 168 163 163 166 171 169 167 165 164 162 161 158 154 150 149 149 151 156 156 156 155 157 156 153 151 149 148 148 148 150 150 148 146 144 144 142 141 140 140 139 138 136 136 136 136 135 134 135 137 141
189 209 238 263 272 268 249 213 183 164 151 140 135 133 133 140 156 169 174 170 164 162 163 166 166 165 164 164 162 160 157 154 151 150 149 151 152 152 152 153 156 157 156 153 150 148 148 150 152 152 150 148 146 145 144 143 143 142 140 138 135 133 132 132 131 132 135 139 143
181 194 217 249 269 272 268 257 231 192 160 141 135 134 136 141 153 165 170 168 162 160 160 164 163 161 160 162 162 161 160 157 154 152 150 149 150 149 149 151 156 158 159 156 156 155 154 153 155 155 153 150 148 147 146 146 146 145 143 141 137 133 130 127 127 131 135 141 144
184 195 208 230 250 259 262 259 247 221 169 137 131 131 135 141 149 157 161 160 157 157 160 163 159 157 157 160 163 165 164 162 158 155 151 147 148 148 148 151 156 159 160 162 164 163 161 160 161 160 156 151 147 145 145 147 148 149 148 145 142 137 132 126 126 129 135 142 149
190 197 209 219 231 240 244 246 243 226 168 127 122 124 132 142 146 148 149 149 152 158 164 166 163 162 163 165 167 169 170 168 163 158 153 148 148 148 149 152 156 158 164 171 171 170 168 166 164 162 156 150 146 145 144 147 150 150 149 147 145 142 139 137 135 135 138 144 151
188 193 199 206 215 225 233 237 236 221 158 123 121 126 136 146 146 144 144 145 153 161 169 174 172 171 171 170 171 172 172 171 165 160 155 149 149 150 151 153 155 160 169 176 175 174 172 169 167 163 157 149 148 148 149 149 150 150 148 148 148 147 147 146 145 144 142 142 146
188 187 189 192 203 212 218 222 218 203 163 133 127 131 139 148 148 147 146 148 154 161 169 176 178 178 176 176 177 175 171 165 163 160 157 152 151 152 154 155 157 166 175 179 178 176 175 172 169 165 160 153 150 148 148 148 150 151 151 150 150 149 149 149 147 146 145 144 143
189 188 187 190 195 199 202 204 201 193 171 145 133 132 138 151 154 154 153 153 157 161 166 172 176 178 180 182 180 175 167 159 159 160 159 155 153 154 156 158 161 172 179 181 179 177 176 174 172 168 164 159 154 150 150 151 153 154 153 153 152 151 149 147 144 144 143 142 141
191 189 189 192 193 195 196 198 195 186 171 150 133 131 137 153 165 168 165 162 161 161 160 161 169 177 181 181 177 172 165 160 160 161 162 160 158 160 161 162 165 175 182 182 180 179 177 176 173 170 166 161 155 150 151 153 154 156 155 153 150 148 146 143 141 141 141 141 140
192 192 192 194 195 194 195 194 188 180 167 151 136 134 138 157 175 184 182 175 164 155 149 149 163 173 178 175 171 167 162 158 160 164 167 166 165 164 165 164 166 176 183 183 180 179 179 177 175 171 167 163 157 154 153 155 156 157 156 154 151 149 146 141 141 142 143 142 141
198 195 194 194 195 194 191 188 184 177 166 153 142 139 143 158 178 192 194 183 159 145 141 143 159 168 172 169 167 163 160 157 162 169 173 172 168 167 166 165 167 176 183 182 180 180 180 179 175 171 167 164 158 153 151 152 153 152 149 148 149 150 149 146 145 146 146 147 146
209 201 195 193 192 189 186 184 182 178 169 159 150 145 144 152 169 192 197 186 153 140 137 142 156 167 171 170 167 164 160 158 163 170 174 174 170 168 167 166 168 176 181 182 181 181 181 180 176 171 167 163 155 148 145 145 143 140 139 141 145 147 148 146 147 149 151 151 150
218 207 197 189 186 184 181 181 182 179 173 164 154 146 142 144 157 182 196 188 152 135 133 138 154 167 174 173 170 166 163 158 158 160 162 164 164 166 167 170 170 176 180 182 183 183 181 180 175 170 165 159 149 141 139 138 135 132 132 134 138 141 144 145 147 150 152 152 151
225 215 204 191 184 179 178 179 181 180 176 167 155 144 138 139 152 176 193 184 150 129 125 131 146 163 175 176 171 167 163 157 152 149 147 146 151 158 164 169 171 176 179 184 185 183 181 179 174 168 161 150 141 136 137 136 133 133 134 134 135 137 139 141 145 148 150 150 147
227 219 212 200 186 177 175 175 178 179 177 169 154 143 138 139 150 173 189 178 151 132 126 128 138 157 174 179 176 172 165 156 151 148 146 144 145 148 153 161 171 178 182 186 186 183 180 177 172 163 154 140 134 133 137 136 133 133 134 135 136 137 139 139 142 145 146 147 145
235 223 216 208 194 181 174 173 176 178 177 170 155 144 140 141 150 172 188 181 153 139 135 132 139 155 175 182 181 176 167 157 153 151 151 150 148 145 143 144 166 183 188 188 187 183 179 176 168 158 146 132 133 134 135 131 129 130 131 132 134 135 136 138 140 142 144 146 148
268 232 217 210 202 189 178 172 175 178 177 170 156 147 143 145 153 170 186 182 160 148 143 138 142 154 170 182 182 176 168 159 157 156 155 155 153 148 144 140 155 187 197 195 188 183 178 175 164 153 143 134 138 139 137 132 129 129 130 130 129 127 127 132 137 141 145 152 157
316 260 223 209 204 194 182 174 177 177 175 168 158 152 149 150 156 168 180 181 163 151 147 143 144 148 161 178 181 175 167 162 162 161 160 159 158 155 150 144 149 172 209 217 198 187 179 174 161 151 144 139 142 142 140 135 132 132 131 128 125 122 119 122 129 138 147 158 165
340 308 247 212 205 197 188 179 177 175 171 165 159 156 155 154 157 165 171 172 157 149 146 142 140 143 153 174 176 172 167 165 167 166 164 162 162 160 156 147 146 154 199 249 232 203 185 173 160 151 145 141 143 142 139 136 134 134 135 135 133 130 125 122 126 134 145 160 169
346 324 287 225 204 197 191 182 175 167 163 161 160 157 155 153 153 156 161 162 154 148 143 140 136 140 150 168 169 167 165 167 170 170 168 165 165 163 159 150 147 150 175 244 256 228 198 175 160 152 148 143 144 142 140 138 138 140 144 147 144 141 136 131 128 132 141 157 168